Simultaneous Nadir Overpasses (SNOs) Predictions

Prediction of SNOs near equator between AQUA and NPP Satellite Orbit:

Table of predicted SNOs near equator for the next 14.0 days since TLE Epoch: 7/16/2016
Index Date (AQUA) Time (AQUA) AQUA Lat,Lon Date (NPP) Time (NPP) NPP Lat,Lon Distance(km) Time Diff (sec)
1 07/16/2016 07:09:47 29.96, 91.65 07/16/2016 06:59:47 30.77, 91.31 95.30 600
2 07/16/2016 07:51:44 -3.13, -94.55 07/16/2016 07:42:36 -3.10, -94.66 12.11 548
3 07/16/2016 08:39:59 -1.49, 74.05 07/16/2016 08:32:06 -1.57, 73.68 41.85 473
4 07/16/2016 09:28:06 6.00,-117.33 07/16/2016 09:21:29 6.12,-117.97 71.58 397
5 07/16/2016 10:16:21 -10.61, 51.28 07/16/2016 10:10:59 -10.79, 50.39 99.81 322
6 07/18/2016 23:21:35 13.17,-148.49 07/18/2016 23:11:40 13.17,-148.50 1.00 595
7 07/19/2016 00:07:44 -1.52, 21.67 07/18/2016 23:59:02 -1.51, 21.47 22.34 522
8 07/19/2016 00:56:00 -3.03,-169.74 07/19/2016 00:48:33 -3.11,-170.20 51.93 447
9 07/19/2016 01:44:07 7.54, -1.12 07/19/2016 01:37:55 7.71, -1.83 81.24 372
10 07/21/2016 15:35:48 5.05, -30.85 07/21/2016 15:26:16 5.06, -30.88 3.02 572
11 07/21/2016 16:23:46 0.01, 137.88 07/21/2016 16:15:29 0.08, 137.60 32.24 497
12 07/21/2016 17:12:02 -4.56, -53.53 07/21/2016 17:05:00 -4.70, -54.07 61.86 422
13 07/21/2016 18:00:08 9.14, 115.11 07/21/2016 17:54:22 9.30, 114.30 90.78 346
14 07/24/2016 07:09:38 -29.98, -88.33 07/24/2016 06:59:38 -30.67, -88.64 82.40 600
15 07/24/2016 07:51:41 2.99, 85.47 07/24/2016 07:42:34 2.94, 85.37 12.59 547
16 07/24/2016 08:39:48 1.54,-105.91 07/24/2016 08:31:57 1.62,-106.28 42.39 471
17 07/24/2016 09:28:03 -6.14, 62.69 07/24/2016 09:21:27 -6.28, 62.06 71.71 396
18 07/26/2016 23:21:16 -12.59, 31.67 07/26/2016 23:11:23 -12.59, 31.66 0.99 593
19 07/27/2016 00:07:42 1.42,-158.31 07/26/2016 23:59:01 1.36,-158.50 22.57 521
20 07/27/2016 00:55:49 3.11, 10.31 07/27/2016 00:48:24 3.20, 9.85 52.50 445
21 07/27/2016 01:44:04 -7.71, 178.91 07/27/2016 01:37:54 -7.86, 178.19 81.52 370
22 07/29/2016 15:35:26 -4.39, 149.32 07/29/2016 15:25:56 -4.38, 149.30 2.98 570
23 07/29/2016 16:23:42 -0.14, -42.09 07/29/2016 16:15:27 -0.22, -42.38 32.80 495
24 07/29/2016 17:11:49 4.67, 126.53 07/29/2016 17:04:50 4.78, 125.98 62.59 419
25 07/29/2016 18:00:04 -9.27, -64.86 07/29/2016 17:54:20 -9.44, -65.68 91.25 344




NCC Satellite Simultaneous Nadir Overpasses (SNOs) Prediction Service
